Temperature
16 16 16 16 16 15 15 15 16 16 16 16 16 17 17 17 17 17 17 17 17 17 17 18 18 18 18 18 18 18 18 18 18 18 18 17 17 17 17 17 18 18 18
16 16 15 15 15 15 15 15 15 15 16 16 16 16 16 17 17 17 17 17 17 17 17 17 17 17 18 18 18 18 18 18 18 18 18 18 18 18 17 17 17 17 17
16 15 15 15 15 15 15 15 15 15 15 15 16 16 16 16 16 16 17 17 17 17 17 17 17 17 17 17 17 17 18 18 18 18 18 18 18 18 18 18 18 18 17
15 15 15 15 15 15 15 15 15 15 15 15 16 16 16 16 16 16 16 16 17 17 17 17 17 17 17 17 17 17 17 18 17 18 18 18 18 18 18 18 18 18 18
15 15 15 15 15 14 14 14 14 15 15 15 15 16 16 16 16 16 16 16 16 16 17 17 17 17 17 17 17 17 17 17 17 17 18 18 18 18 18 18 18 17 17
14 15 14 14 14 14 14 14 14 14 15 15 15 15 15 16 16 16 16 16 16 16 16 16 17 17 17 17 17 17 17 17 17 17 17 18 18 18 18 18 17 17 17
14 14 14 14 14 14 14 14 14 14 15 15 15 15 15 16 16 16 16 16 16 16 16 16 16 17 17 17 17 17 17 17 17 17 17 17 18 18 17 17 17 17 17
14 14 14 14 14 14 14 14 14 14 14 15 15 15 15 16 16 16 16 16 16 16 16 16 16 16 16 17 17 17 17 17 17 17 17 17 17 17 17 17 17 17 17
14 14 14 14 14 14 14 14 14 14 14 14 14 15 15 15 15 15 15 16 16 16 16 16 16 16 16 16 17 17 17 17 17 17 17 17 17 17 17 17 17 17 17
15 14 14 14 14 14 14 14 14 14 14 14 14 15 15 15 15 15 15 15 16 16 16 16 16 16 16 16 16 17 17 17 17 17 17 17 17 17 17 17 17 17 17
15 15 14 14 14 14 14 14 14 14 14 14 14 14 15 15 15 15 15 15 15 15 15 15 16 16 16 16 16 16 17 17 17 17 17 17 17 17 17 17 17 17 17
15 15 15 14 14 14 14 14 14 14 14 14 14 14 14 14 14 15 15 15 15 15 15 15 15 16 16 16 16 16 16 16 17 17 17 17 17 17 17 17 17 17 17
16 15 15 15 14 14 14 14 14 14 14 14 14 14 14 14 14 14 14 14 15 15 15 15 15 15 15 15 16 16 16 16 16 16 17 17 17 17 17 17 17 17 17
16 16 15 15 15 14 14 14 14 14 14 14 14 14 14 14 14 14 14 14 14 15 15 15 15 15 15 15 15 16 16 16 16 16 16 16 16 16 17 17 17 17 17
16 16 15 15 15 15 14 14 14 14 14 14 14 14 14 14 14 14 14 14 14 14 14 14 14 14 15 15 15 15 16 16 16 16 16 16 16 16 16 16 16 16 16
16 16 16 15 15 15 15 14 14 14 14 14 14 14 14 14 14 14 14 14 14 14 14 14 14 14 14 14 15 15 15 15 16 16 16 16 16 16 16 16 16 16 16
16 16 16 16 15 15 15 15 15 14 14 14 14 14 14 14 14 14 14 14 14 14 14 14 14 14 14 14 15 15 15 15 15 15 16 16 16 16 16 16 16 16 16
16 16 16 16 16 15 15 15 15 14 14 14 14 14 14 14 14 14 14 14 14 14 14 14 14 14 14 14 14 14 14 14 15 15 15 15 15 16 16 16 16 16 15
16 16 16 16 16 16 15 15 15 15 15 14 14 14 14 14 14 14 14 14 14 14 14 14 14 14 14 14 14 14 14 14 14 14 15 15 15 15 15 15 15 15 15
16 16 16 16 16 16 15 15 15 15 15 15 14 14 14 14 14 14 14 14 14 14 14 14 14 14 14 14 14 14 14 14 14 14 14 14 14 14 14 15 15 15 15
15 15 15 15 15 15 15 15 15 15 15 15 15 15 14 14 14 14 14 14 14 13 13 13 13 13 14 13 14 14 14 14 14 14 14 14 14 14 14 14 14 14 14
15 15 15 15 15 15 15 15 15 15 15 15 15 15 15 15 14 14 14 14 14 13 13 13 13 13 14 14 14 14 13 13 13 13 13 13 13 13 13 14 14 14 14
14 14 14 14 15 15 15 15 15 15 15 15 15 15 15 15 15 14 14 14 14 14 14 14 13 14 14 14 14 13 13 13 13 13 13 13 13 13 13 13 13 13 13
14 14 14 14 14 14 14 14 14 14 14 15 15 15 15 15 15 14 14 14 14 14 14 14 14 14 14 14 13 13 13 13 13 13 13 13 13 13 13 13 13 13 13
13 13 13 13 13 13 13 13 14 14 14 14 14 14 15 15 15 14 14 14 14 14 14 14 14 13 13 13 13 13 13 13 13 13 13 13 13 13 13 13 13 12 12
12 12 12 12 12 13 13 13 13 13 13 13 14 14 14 14 15 14 14 14 14 14 13 13 13 13 13 13 13 13 13 13 13 12 12 13 13 12 12 12 12 12 12
Wind_Speed
3 3 2 2 3 5 3 3 3 4 4 4 4 4 3 2 1 2 6 9 8 7 6 5 6 6 6 6 6 6 6 6 7 8 9 9 9 10 11 13 14 14 14
2 3 4 3 3 4 4 3 4 4 3 3 4 4 3 3 1 1 5 8 9 8 7 7 6 6 6 7 7 7 7 8 7 8 9 9 9 9 11 12 13 13 13
4 3 4 4 3 5 5 4 5 4 4 3 3 3 3 2 2 1 2 6 7 8 8 8 7 6 7 8 7 7 8 9 8 8 9 9 9 10 11 11 12 12 12
8 3 4 4 4 4 3 3 3 4 4 4 3 3 2 2 2 1 1 3 5 6 8 8 7 7 7 7 8 8 8 9 9 9 9 9 9 10 11 11 11 11 12
10 5 3 3 5 3 4 5 4 4 4 4 3 2 1 1 2 2 0 2 4 6 7 8 8 8 8 7 8 8 8 8 9 9 9 9 10 10 11 11 11 11 12
7 5 3 4 5 4 4 4 4 4 3 3 4 2 1 0 1 1 1 1 2 4 6 7 7 7 8 8 8 8 8 8 9 9 10 10 10 10 11 11 11 11 12
5 3 3 4 3 3 4 5 4 5 4 3 3 3 2 1 1 1 1 1 1 3 4 6 6 7 7 8 8 8 8 9 9 9 10 10 10 10 10 11 11 12 11
6 6 5 4 3 3 4 5 4 4 4 3 2 2 2 3 2 1 1 1 1 2 2 3 4 5 6 7 8 8 8 9 9 8 9 10 11 10 10 10 11 12 12
3 4 4 4 4 3 3 4 4 5 4 4 2 1 1 1 1 2 2 1 1 1 1 2 3 4 6 7 8 8 8 9 9 9 9 9 10 10 10 10 11 12 12
1 1 3 3 4 3 3 4 4 4 4 4 3 2 1 0 0 1 2 2 2 2 1 1 2 4 5 7 8 9 9 9 9 10 10 10 10 10 10 10 11 12 12
1 1 1 3 3 2 3 3 3 4 3 3 3 3 3 2 1 1 0 1 2 1 1 1 2 3 6 6 7 8 9 8 8 9 9 9 10 10 10 10 10 11 12
1 1 0 2 2 2 3 3 2 2 2 2 2 2 2 2 2 1 0 1 1 1 1 1 2 3 5 6 6 8 8 7 7 8 8 9 9 9 9 9 10 11 12
1 1 1 1 1 2 2 2 3 2 1 1 1 1 2 2 2 1 0 0 1 1 1 1 1 3 5 6 5 7 7 7 7 7 8 8 8 8 8 7 8 9 10
1 1 0 1 1 1 2 1 3 3 2 1 1 1 1 1 1 1 0 1 0 0 0 0 1 2 3 5 6 6 6 7 8 7 7 7 7 8 7 7 7 8 9
1 0 1 2 1 1 2 2 2 3 3 2 2 2 1 1 1 1 0 1 2 1 1 1 1 1 3 4 5 5 6 7 8 8 8 8 8 8 7 7 6 7 8
2 1 3 3 3 3 3 2 2 2 2 2 1 1 1 1 1 1 1 0 1 1 1 1 1 2 3 4 5 5 7 9 8 9 9 8 8 8 7 7 7 7 7
4 3 3 3 3 3 3 2 2 2 3 3 2 2 1 0 0 1 1 0 0 1 1 1 1 2 3 3 2 4 6 6 6 9 9 9 9 9 8 7 7 8 8
4 4 3 4 4 3 2 2 3 3 3 3 3 2 1 1 1 1 1 1 1 1 2 2 1 1 2 3 3 3 3 5 6 8 10 10 9 9 8 8 8 7 8
5 5 4 4 4 4 4 4 5 5 5 5 4 3 2 1 2 2 2 1 1 1 1 2 2 1 1 2 2 2 1 2 4 7 10 9 9 9 9 8 7 7 7
5 5 5 5 5 4 4 4 4 4 5 4 5 4 4 3 2 2 2 2 1 1 1 1 1 2 1 1 2 2 1 1 2 4 6 8 10 10 9 8 8 8 7
6 6 5 6 5 4 4 4 3 4 4 5 5 5 5 5 4 2 1 0 1 1 2 2 2 2 2 2 2 2 2 2 1 2 3 4 5 5 6 8 8 8 8
7 6 6 6 6 5 5 4 4 4 5 5 6 5 6 7 7 7 5 4 2 2 2 2 3 3 4 3 3 3 2 2 2 2 2 2 4 4 5 6 9 10 9
6 7 7 6 6 7 8 7 8 6 6 6 6 6 5 7 9 7 8 8 7 7 5 3 3 4 4 4 4 4 3 3 3 3 2 2 2 3 4 7 12 11 10
6 6 6 7 7 8 9 9 8 7 8 8 8 8 7 6 8 8 7 7 7 7 8 6 4 3 2 3 4 5 5 3 2 2 3 2 2 3 4 6 11 12 11
6 6 6 6 7 7 8 8 6 5 7 9 9 9 9 7 11 13 8 7 7 7 8 8 7 6 5 4 3 2 2 3 3 3 3 3 3 3 3 3 7 11 12
6 7 7 6 7 6 7 7 6 4 6 8 8 9 12 11 11 13 9 8 8 7 6 6 6 6 6 5 6 5 4 4 3 3 3 3 3 3 2 3 4 7 8
Wind_Direction
353 3 337 13 352 358 351 331 315 334 335 326 328 325 335 343 23 111 137 152 156 163 166 162 160 160 159 156 151 146 147 143 133 125 120 116 113 112 111 112 114 113 113
2 9 358 360 11 352 345 331 327 340 320 314 321 322 321 328 347 145 156 164 171 172 171 169 167 162 166 164 160 153 151 149 141 136 134 129 126 125 125 122 120 119 118
11 32 9 357 356 348 348 350 342 335 322 321 315 313 317 324 324 291 167 159 164 175 176 173 168 165 166 166 160 154 152 149 149 146 143 140 141 140 138 133 131 128 125
12 33 13 348 347 354 354 337 350 343 336 336 331 321 332 327 311 282 214 157 159 162 169 175 172 171 167 167 164 162 159 154 156 155 150 147 147 148 148 144 140 138 135
0 22 359 331 355 2 357 344 8 343 332 334 309 284 298 304 318 300 216 144 143 147 154 170 173 176 173 171 170 169 166 162 163 163 157 151 152 153 154 151 147 145 142
1 5 338 8 8 359 352 353 357 339 323 310 319 344 332 325 354 357 15 83 135 145 147 154 159 175 178 173 172 172 169 166 166 168 165 160 156 157 158 157 155 151 149
360 356 359 359 360 354 358 359 352 342 332 335 347 340 329 317 134 77 56 34 91 115 128 146 158 161 164 174 170 167 167 169 169 171 170 167 163 162 164 167 165 162 160
14 2 6 353 3 357 9 354 352 350 339 351 356 347 350 1 10 50 77 89 95 114 116 136 144 145 147 154 168 168 168 169 173 170 171 170 169 169 170 175 175 172 172
31 4 347 347 348 9 16 352 1 357 340 336 14 31 11 344 335 2 34 58 86 94 118 109 131 138 141 146 155 168 168 171 177 177 175 175 173 175 179 181 182 181 180
110 29 335 340 345 5 6 359 21 349 351 342 342 351 331 272 341 357 2 19 50 77 74 104 124 120 128 137 145 160 170 175 176 179 180 181 180 183 186 189 190 190 189
142 152 356 327 333 356 4 9 12 354 353 353 341 335 344 350 2 101 17 13 19 18 79 87 106 110 119 127 135 150 161 171 175 179 181 182 186 188 191 195 197 197 195
206 153 139 313 327 360 8 4 350 336 340 338 336 342 359 355 348 15 42 60 48 336 53 76 109 113 110 112 128 144 155 165 177 178 179 182 185 187 191 198 199 200 199
243 154 78 306 344 13 350 345 323 305 304 328 341 341 347 342 335 356 62 95 83 316 52 48 90 121 128 129 129 144 153 159 170 173 174 179 186 189 190 198 198 195 193
270 142 180 295 352 337 324 336 323 319 338 342 350 1 314 315 341 354 30 103 91 316 82 133 78 111 126 138 146 149 154 162 167 171 173 179 186 189 192 192 191 191 191
261 203 246 248 225 223 301 325 304 326 342 348 358 355 333 302 301 335 13 123 144 164 198 192 141 167 152 141 161 170 158 167 170 174 180 186 188 188 190 189 187 188 190
287 263 258 252 226 208 220 226 283 306 312 291 242 271 315 326 10 357 327 48 119 162 194 204 201 199 176 165 177 172 168 173 182 183 185 189 191 190 187 187 189 189 188
262 243 240 262 266 236 221 194 228 265 284 293 287 234 217 193 159 289 304 280 161 142 181 232 197 176 168 157 155 169 170 173 179 188 187 189 190 188 187 187 187 185 186
273 271 253 246 262 263 248 212 221 238 253 273 282 278 233 183 178 243 254 261 213 198 184 207 208 182 181 172 170 188 189 182 172 182 182 184 184 184 185 186 186 185 181
269 271 263 249 253 253 244 233 219 222 230 232 240 248 237 196 199 218 218 238 230 225 185 188 215 201 201 179 171 198 193 176 172 172 176 182 183 182 183 185 187 189 187
297 289 290 278 262 252 246 246 243 229 240 235 219 215 218 215 206 210 213 221 221 234 212 205 213 197 197 195 164 183 195 201 186 172 171 176 184 186 186 186 187 186 186
307 298 291 290 289 275 259 260 266 255 250 251 233 218 208 187 162 160 163 224 231 215 220 207 214 203 201 182 193 203 194 196 206 167 158 171 167 173 180 182 180 178 175
318 316 310 304 300 295 288 278 265 274 272 265 253 232 205 191 192 192 193 196 192 214 224 212 212 212 214 201 195 194 179 168 222 208 152 189 165 171 174 175 178 175 172
316 310 304 299 293 287 280 268 257 260 262 265 270 259 237 207 191 193 208 217 225 226 220 218 230 228 209 196 184 193 194 187 206 197 148 203 180 162 161 168 169 168 167
319 308 300 297 293 288 282 269 262 255 256 254 257 258 249 224 198 193 198 207 214 218 222 220 227 237 220 183 175 186 191 189 194 187 154 181 189 165 142 147 163 164 166
319 314 309 303 297 295 290 280 264 270 266 257 252 252 247 234 211 200 200 209 212 218 216 204 195 190 178 165 159 149 172 167 197 211 184 170 181 155 140 152 166 167 167
318 315 312 308 306 306 309 305 283 275 281 279 266 256 248 238 220 201 200 208 218 217 198 196 200 205 200 201 196 188 186 184 193 202 197 168 176 148 148 159 161 172 171
Height
1522 1521 1520 1519 1518 1517 1516 1515 1515 1514 1514 1514 1514 1514 1515 1515 1516 1517 1518 1519 1520 1521 1522 1523 1524 1526 1527 1528 1530 1532 1533 1534 1536 1537 1538 1539 1540 1542 1543 1544 1546 1547 1549
1522 1521 1520 1519 1518 1517 1516 1515 1514 1514 1513 1513 1513 1513 1513 1514 1514 1515 1516 1518 1518 1520 1521 1522 1523 1525 1526 1528 1530 1532 1533 1535 1536 1538 1539 1541 1542 1543 1545 1547 1548 1550 1551
1522 1520 1519 1519 1518 1517 1516 1515 1514 1513 1513 1512 1512 1512 1512 1513 1513 1514 1515 1516 1517 1518 1520 1521 1523 1524 1526 1527 1529 1531 1533 1535 1537 1539 1540 1542 1543 1545 1547 1548 1550 1551 1553
1522 1520 1519 1518 1517 1516 1515 1515 1513 1512 1512 1512 1511 1511 1511 1511 1512 1513 1514 1515 1516 1517 1519 1520 1521 1523 1525 1527 1529 1531 1533 1535 1537 1539 1541 1542 1544 1546 1548 1550 1551 1553 1554
1522 1521 1519 1518 1517 1516 1515 1514 1513 1512 1511 1511 1510 1510 1511 1511 1511 1512 1513 1514 1515 1516 1517 1519 1520 1522 1524 1526 1528 1530 1532 1534 1536 1539 1541 1543 1545 1546 1548 1550 1552 1554 1555
1522 1521 1520 1518 1517 1516 1515 1514 1513 1512 1511 1510 1510 1510 1510 1510 1510 1511 1512 1513 1514 1515 1517 1518 1519 1521 1523 1525 1527 1529 1531 1533 1536 1538 1540 1543 1545 1547 1549 1550 1552 1554 1556
1522 1521 1520 1518 1517 1516 1515 1514 1512 1511 1511 1510 1510 1509 1509 1509 1509 1510 1511 1512 1513 1515 1516 1517 1518 1520 1522 1524 1526 1528 1530 1533 1535 1538 1540 1542 1544 1546 1548 1550 1552 1554 1556
1522 1521 1520 1519 1518 1516 1515 1514 1513 1512 1511 1510 1510 1509 1509 1510 1510 1510 1511 1512 1513 1514 1515 1516 1517 1519 1521 1523 1525 1527 1529 1532 1534 1536 1539 1541 1543 1546 1548 1550 1552 1554 1556
1522 1520 1520 1519 1518 1517 1516 1514 1513 1512 1511 1511 1511 1511 1510 1510 1510 1511 1511 1511 1512 1513 1514 1515 1516 1518 1520 1521 1523 1526 1528 1531 1533 1535 1538 1540 1542 1545 1547 1549 1551 1553 1555
1522 1521 1520 1519 1518 1517 1516 1515 1514 1513 1512 1511 1511 1511 1511 1511 1511 1511 1511 1511 1512 1512 1513 1514 1515 1517 1519 1520 1522 1525 1527 1529 1532 1534 1537 1539 1541 1543 1546 1548 1550 1552 1554
1522 1521 1520 1519 1518 1517 1516 1515 1514 1513 1512 1512 1511 1511 1511 1511 1511 1511 1511 1511 1512 1512 1513 1514 1515 1516 1518 1520 1521 1524 1526 1528 1531 1533 1535 1537 1539 1542 1544 1546 1548 1550 1552
1523 1522 1520 1519 1519 1518 1517 1515 1514 1513 1512 1512 1511 1511 1511 1511 1510 1511 1511 1511 1511 1512 1513 1513 1514 1516 1517 1518 1521 1523 1525 1527 1529 1531 1533 1536 1537 1540 1542 1544 1546 1548 1550
1523 1522 1521 1520 1519 1518 1517 1515 1514 1514 1513 1512 1512 1511 1511 1510 1510 1511 1511 1511 1511 1512 1513 1513 1514 1515 1516 1518 1520 1522 1523 1525 1527 1529 1531 1533 1535 1538 1540 1541 1543 1545 1547
1523 1521 1520 1519 1518 1517 1516 1515 1514 1514 1513 1512 1512 1511 1510 1510 1510 1510 1510 1511 1511 1511 1512 1513 1513 1514 1516 1517 1519 1520 1522 1524 1526 1528 1529 1531 1533 1536 1537 1539 1540 1542 1545
1522 1521 1520 1519 1518 1517 1516 1515 1514 1513 1512 1512 1511 1511 1510 1510 1509 1509 1509 1510 1511 1511 1511 1512 1513 1514 1515 1516 1517 1518 1520 1522 1524 1525 1527 1529 1531 1533 1535 1536 1538 1540 1542
1521 1520 1519 1518 1517 1516 1515 1514 1513 1513 1512 1511 1511 1510 1509 1509 1508 1508 1509 1509 1509 1510 1510 1511 1512 1513 1514 1514 1515 1516 1518 1520 1521 1523 1525 1527 1528 1530 1532 1533 1535 1537 1538
1519 1519 1518 1517 1517 1516 1515 1514 1513 1512 1511 1511 1510 1509 1509 1508 1508 1508 1508 1508 1508 1509 1509 1510 1511 1512 1513 1513 1514 1515 1516 1517 1519 1520 1522 1524 1525 1527 1529 1530 1532 1533 1535
1518 1518 1517 1516 1515 1515 1514 1513 1512 1511 1510 1510 1509 1509 1508 1508 1507 1507 1507 1507 1507 1507 1508 1508 1509 1510 1511 1512 1512 1513 1514 1515 1516 1517 1519 1520 1522 1524 1525 1527 1528 1530 1531
1516 1516 1515 1514 1513 1513 1512 1511 1511 1510 1509 1508 1508 1508 1507 1507 1506 1506 1505 1505 1506 1506 1506 1507 1508 1508 1509 1510 1511 1512 1512 1513 1514 1515 1516 1518 1519 1520 1522 1524 1525 1526 1528
1514 1513 1513 1512 1511 1511 1510 1509 1509 1508 1508 1507 1507 1506 1505 1505 1505 1504 1504 1504 1504 1504 1505 1505 1505 1506 1507 1508 1509 1509 1510 1511 1512 1513 1514 1515 1516 1518 1519 1520 1522 1523 1524
1511 1510 1510 1509 1508 1508 1507 1507 1506 1506 1505 1505 1504 1504 1503 1503 1503 1503 1502 1502 1502 1502 1503 1503 1504 1505 1505 1505 1506 1507 1508 1509 1510 1511 1512 1513 1514 1515 1516 1517 1519 1520 1521
1508 1507 1506 1505 1504 1504 1503 1503 1502 1502 1502 1502 1502 1501 1501 1500 1500 1500 1500 1500 1500 1500 1501 1501 1501 1502 1502 1503 1504 1505 1506 1506 1507 1509 1510 1511 1512 1513 1514 1515 1516 1517 1518
1504 1503 1502 1501 1500 1499 1499 1498 1498 1497 1497 1497 1497 1498 1498 1497 1497 1497 1497 1497 1497 1498 1498 1499 1499 1499 1499 1500 1501 1502 1502 1503 1504 1506 1507 1508 1509 1510 1511 1512 1514 1515 1516
1501 1500 1499 1497 1496 1495 1495 1494 1493 1492 1492 1492 1493 1493 1494 1494 1493 1493 1493 1493 1493 1494 1494 1495 1495 1496 1496 1497 1498 1499 1499 1500 1502 1503 1504 1505 1506 1507 1508 1510 1511 1512 1513
1499 1497 1495 1494 1493 1491 1490 1489 1488 1487 1486 1486 1487 1488 1489 1489 1489 1489 1489 1489 1489 1490 1491 1491 1492 1492 1493 1494 1494 1495 1496 1497 1498 1499 1501 1502 1503 1504 1505 1507 1508 1509 1510
1496 1494 1492 1491 1490 1488 1487 1485 1484 1482 1481 1480 1481 1482 1483 1484 1484 1484 1484 1485 1485 1485 1486 1487 1487 1488 1489 1489 1490 1491 1492 1493 1494 1495 1496 1498 1499 1501 1502 1503 1505 1506 1507